Terug naar catalogus

STARLINK-30198

ActiefCommunicatieVLEO
NORAD 57290·PAYLOAD·🇺🇸 United States

Gelanceerd Jul 10, 2023 vanaf Cape Canaveral Space Force Station

Loading…

Volgende Passages (komende 24 uur)

TLE

VersSource: CelesTrak SupGP

Epoch: Sep 14, 2026, 21:56 UTC

1 57290C 23096A   26257.91437500  .00057511  00000+0  18178-2 0  2576
2 57290  42.9821 237.7562 0012603 114.1360 356.4495 15.31872974    15

Volg STARLINK-30198 in realtime met AllMySat

Download on the App Store